Tracking 35237 objects as of 4-Sep-2026
HD Live streaming from Space Station
objects crossing your sky now

STARLINK-35885

Track STARLINK-35885 now!
10-day predictions
STARLINK-35885 is classified as:


NORAD ID: 66890
Int'l Code: 2025-283N
Launch date: December 4, 2025
Source: United States (US)
Launch site: AIR FORCE WESTERN TEST RANGE (AFWTR)
Your satellite tracking list
Your tracking list is empty




NASA's NSSDC Master Catalog

Two Line Element Set (TLE):
1 66890U 25283N   26247.10223419  .00011138  00000-0  34029-3 0  9997
2 66890  53.1587 272.3601 0001004  83.0632 277.0484 15.34400659 43206
Source of the keplerian elements: AFSPC